Waarnemingen

Advertentie
Mijn weer
Rodez, Frankrijk (7552): temperatuur & dauwpunt: 13.09.2019 07:00:00 - 19.09.2019 07:00:00 (CEST)Rodez, Frankrijk (7552): temperatuur 5cm: 13.09.2019 07:00:00 - 19.09.2019 07:00:00 (CEST)Rodez, Frankrijk (7552): windsnelheid & windstoten: 13.09.2019 07:00:00 - 19.09.2019 07:00:00 (CEST)Rodez, Frankrijk (7552): windrichting: 13.09.2019 07:00:00 - 19.09.2019 07:00:00 (CEST)Rodez, Frankrijk (7552): luchtdruk: 13.09.2019 07:00:00 - 19.09.2019 07:00:00 (CEST)Rodez, Frankrijk (7552): zicht: 13.09.2019 07:00:00 - 19.09.2019 07:00:00 (CEST)Rodez, Frankrijk (7552): Zonneschijnduur: 13.09.2019 07:00:00 - 19.09.2019 07:00:00 (CEST)Rodez, Frankrijk (7552): neerslag: 13.09.2019 07:00:00 - 19.09.2019 07:00:00 (CEST)
Datum & Tijd tt [°C] td [°C] tt 5cm [°C] ff [km/u] ff [kn] fx [km/u] fx [kn] dd ppp [hPa] vv [km] sd [min] rr [mm]
19.09.2019 07:00:00 - - - - - - - - - - - -
19.09.2019 06:00:00 14,8 12,8 11,4 10 5 12 7 NO 1018,1 41 0 0,0
19.09.2019 05:00:00 14,4 12,8 11,5 3 1 8 4 Z 1018,2 45 0 0,0
19.09.2019 04:00:00 16,0 13,3 11,6 5 3 10 5 ONO 1018,0 49 0 0,0
19.09.2019 03:00:00 15,3 13,0 12,7 3 1 10 5 ONO 1018,3 48 0 0,0
19.09.2019 02:00:00 15,7 13,5 14,2 3 2 10 6 ZW 1018,6 57 0 0,0
19.09.2019 01:00:00 16,9 13,8 15,5 8 4 10 5 ONO 1017,9 58 0 0,0
19.09.2019 00:00:00 17,9 13,6 16,4 8 4 15 8 OZO 1017,5 60 0 0,0
18.09.2019 23:00:00 18,7 13,5 18,0 9 5 23 12 O 1017,6 60 0 0,0
18.09.2019 22:00:00 19,4 13,8 19,0 16 9 44 24 OZO 1016,7 60 0 0,0
18.09.2019 21:00:00 22,5 13,8 21,2 10 5 24 13 ZO 1015,3 60 0 0,0
18.09.2019 20:00:00 23,3 12,9 20,8 12 7 35 19 W 1013,9 60 21 0,0
18.09.2019 19:00:00 26,1 12,9 26,3 18 10 27 14 WNW 1012,7 59 38 0,0
18.09.2019 18:00:00 27,2 12,4 27,9 16 9 30 16 WNW 1012,6 43 27 0,0
18.09.2019 17:00:00 28,3 13,0 30,5 18 10 30 16 WNW 1012,3 60 56 0,0
18.09.2019 16:00:00 28,1 12,8 30,0 13 7 29 16 WNW 1012,9 60 51 0,0
18.09.2019 15:00:00 27,6 14,2 32,7 14 8 27 15 WNW 1013,2 48 58 0,0
18.09.2019 14:00:00 27,9 14,5 33,1 9 5 23 12 Z 1013,4 60 60 0,0
18.09.2019 13:00:00 26,3 15,0 31,4 6 3 17 9 ZZW 1014,0 51 60 0,0
18.09.2019 12:00:00 24,9 15,0 29,2 5 3 18 10 WZW 1014,3 19 60 0,0
18.09.2019 11:00:00 23,4 15,2 25,2 5 3 15 8 ZW 1014,6 20 60 0,0
18.09.2019 10:00:00 20,9 14,1 20,2 9 5 14 8 OZO 1014,9 39 52 0,0
18.09.2019 09:00:00 18,0 11,8 12,9 8 4 15 8 ONO 1015,2 52 44 0,0
18.09.2019 08:00:00 14,1 11,3 11,7 6 4 9 5 ZO 1015,9 38 4 0,0
18.09.2019 07:00:00 15,2 11,6 11,8 8 5 13 7 OZO 1015,3 46 0 0,0
18.09.2019 06:00:00 15,3 11,9 11,3 5 3 11 6 OZO 1015,3 48 0 0,0
18.09.2019 05:00:00 14,7 11,3 11,0 4 2 8 4 O 1015,5 48 0 0,0
18.09.2019 04:00:00 15,4 11,4 12,8 2 1 10 5 Z 1015,6 49 0 0,0
18.09.2019 03:00:00 16,9 12,2 12,6 3 2 10 6 O 1015,4 59 0 0,0
18.09.2019 02:00:00 15,5 11,5 12,8 6 3 10 5 ZZO 1016,1 59 0 0,0
18.09.2019 01:00:00 17,9 11,5 14,6 3 2 11 6 ZZO 1015,4 20 0 0,0
18.09.2019 00:00:00 20,4 11,3 18,1 5 3 9 5 NNO 1015,0 60 0 0,0
17.09.2019 23:00:00 22,1 10,6 19,7 9 5 28 15 NO 1014,4 60 0 0,0
17.09.2019 22:00:00 22,3 11,7 17,3 5 3 10 5 NNW 1014,1 60 0 0,0
17.09.2019 21:00:00 23,8 11,1 18,4 3 1 9 5 W 1013,4 60 0 0,0
17.09.2019 20:00:00 24,6 11,5 20,8 8 5 15 8 W 1013,1 60 36 0,0
17.09.2019 19:00:00 28,4 11,9 29,4 9 5 20 11 WNW 1012,4 56 60 0,0
17.09.2019 18:00:00 29,7 11,2 32,7 14 8 24 13 NW 1012,5 48 60 0,0
17.09.2019 17:00:00 30,0 11,5 34,2 14 7 28 15 WNW 1012,7 45 60 0,0
17.09.2019 16:00:00 29,9 11,4 35,4 12 6 24 13 NW 1013,2 60 60 0,0
17.09.2019 15:00:00 29,5 12,0 35,3 11 6 25 13 N 1013,8 20 60 0,0
17.09.2019 14:00:00 28,5 12,4 34,0 11 6 24 13 NW 1014,6 54 60 0,0
17.09.2019 13:00:00 27,4 12,6 32,4 10 5 24 13 NW 1015,6 60 60 0,0
17.09.2019 12:00:00 26,4 13,2 30,8 7 4 15 8 W 1016,2 43 60 0,0
17.09.2019 11:00:00 25,0 12,6 27,5 4 2 9 5 WZW 1016,7 45 60 0,0
17.09.2019 10:00:00 21,8 12,6 21,0 3 2 8 4 O 1017,4 42 60 0,0
17.09.2019 09:00:00 17,5 12,2 12,1 3 2 9 5 ZZO 1018,0 44 44 0,0
17.09.2019 08:00:00 12,9 10,8 9,7 8 5 12 6 ZZO 1019,0 49 3 0,0
17.09.2019 07:00:00 13,4 11,1 10,1 6 3 9 5 OZO 1018,6 46 0 0,0
17.09.2019 06:00:00 15,3 11,1 11,5 6 3 9 5 O 1018,2 42 0 0,0
17.09.2019 05:00:00 15,7 11,5 11,6 5 3 9 5 O 1018,3 54 0 0,0
17.09.2019 04:00:00 14,9 11,3 - 5 3 13 7 ZO 1018,8 50 - 0,0
17.09.2019 03:00:00 15,0 11,4 11,6 3 1 8 4 O 1019,1 51 0 0,0
17.09.2019 02:00:00 16,1 11,5 12,7 4 2 12 7 ZO 1018,9 55 0 0,0
17.09.2019 01:00:00 17,1 11,6 13,4 6 3 8 5 ZZO 1018,8 60 0 0,0
17.09.2019 00:00:00 18,4 11,5 14,5 2 1 16 9 Z 1018,7 60 0 0,0
16.09.2019 23:00:00 19,7 11,5 15,5 3 2 9 5 Z 1018,4 60 0 0,0
16.09.2019 22:00:00 19,9 11,4 16,7 9 5 10 5 Z 1018,3 60 0 0,0
16.09.2019 21:00:00 21,8 10,3 17,5 6 4 10 5 ZZW 1017,6 60 0 0,0
16.09.2019 20:00:00 24,5 10,0 20,8 9 5 18 10 W 1016,5 60 38 0,0
16.09.2019 19:00:00 27,8 10,5 28,5 15 8 24 13 NW 1015,6 54 60 0,0
16.09.2019 18:00:00 29,2 9,3 32,5 16 9 28 15 NW 1015,4 56 60 0,0
16.09.2019 17:00:00 30,0 10,0 34,5 15 8 29 16 NW 1015,4 60 60 0,0
16.09.2019 16:00:00 30,3 9,2 35,8 14 7 27 15 WNW 1015,6 59 60 0,0
16.09.2019 15:00:00 30,1 9,0 34,8 13 7 23 12 WZW 1016,1 60 60 0,0
16.09.2019 14:00:00 28,2 8,5 34,3 10 5 20 11 N 1017,2 60 60 0,0
16.09.2019 13:00:00 27,9 8,7 32,5 5 3 14 8 WNW 1017,9 45 60 0,0
16.09.2019 12:00:00 24,8 10,3 29,6 5 3 19 10 NNW 1019,2 17 60 0,0
16.09.2019 11:00:00 24,0 11,3 24,1 4 2 11 6 O 1019,4 57 60 0,0
16.09.2019 10:00:00 19,6 10,3 18,2 7 4 12 6 O 1020,4 49 60 0,0
16.09.2019 09:00:00 15,7 9,4 11,9 6 3 10 5 O 1021,2 53 47 0,0
16.09.2019 08:00:00 13,2 9,1 9,7 5 3 11 6 ZO 1021,8 45 7 0,0
16.09.2019 07:00:00 12,3 8,8 8,9 4 2 10 5 ZO 1022,0 58 0 0,0
16.09.2019 06:00:00 12,4 9,2 9,0 5 3 8 5 ZZO 1022,1 51 0 0,0
16.09.2019 05:00:00 11,9 8,6 9,0 7 4 9 5 ZZO 1022,6 55 0 0,0
16.09.2019 04:00:00 11,9 8,7 9,4 3 2 9 5 ZO 1022,7 55 0 0,0
16.09.2019 03:00:00 14,2 9,4 9,9 3 1 6 3 N 1022,2 60 0 0,0
16.09.2019 02:00:00 14,8 8,9 10,8 4 2 10 5 NNO 1022,0 60 0 0,0
16.09.2019 01:00:00 17,8 9,2 13,1 2 1 12 7 NNO 1021,4 60 0 0,0
16.09.2019 00:00:00 18,8 9,3 15,0 5 3 16 8 O 1021,7 60 0 0,0
15.09.2019 23:00:00 19,8 9,4 17,3 9 5 18 10 ZO 1021,7 60 0 0,0
15.09.2019 22:00:00 21,6 8,8 17,3 14 7 17 9 OZO 1021,4 60 0 0,0
15.09.2019 21:00:00 22,4 8,5 18,1 6 3 24 13 ZO 1021,0 60 0 0,0
15.09.2019 20:00:00 24,1 8,5 22,7 15 8 27 15 ZO 1019,9 60 28 0,0
15.09.2019 19:00:00 26,3 9,2 27,2 19 10 29 16 ZZO 1019,3 56 60 0,0
15.09.2019 18:00:00 28,1 7,9 31,2 16 9 28 15 ZZO 1019,1 32 60 0,0
15.09.2019 17:00:00 29,0 8,1 33,5 20 11 30 16 ZZO 1019,2 60 60 0,0
15.09.2019 16:00:00 29,6 6,9 34,6 16 9 31 17 ZZO 1019,6 59 60 0,0
15.09.2019 15:00:00 29,1 8,2 34,2 12 7 29 16 ZO 1020,2 44 60 0,0
15.09.2019 14:00:00 28,1 8,4 33,5 16 9 33 18 OZO 1021,0 20 60 0,0
15.09.2019 13:00:00 26,8 9,6 27,7 12 6 26 14 O 1021,5 56 35 0,0
15.09.2019 12:00:00 24,1 10,0 25,8 9 5 14 8 O 1022,5 60 2 0,0
15.09.2019 11:00:00 23,3 10,7 24,3 9 5 19 10 OZO 1022,8 59 24 0,0
15.09.2019 10:00:00 22,0 11,1 21,0 10 6 18 10 O 1022,7 42 54 0,0
15.09.2019 09:00:00 19,1 10,4 15,8 14 8 26 14 O 1023,2 55 47 0,0
15.09.2019 08:00:00 16,2 9,8 15,1 13 7 18 10 ONO 1024,1 42 2 0,0
15.09.2019 07:00:00 16,5 9,9 13,0 11 6 16 9 ONO 1024,2 60 0 0,0
15.09.2019 06:00:00 17,8 10,2 16,6 13 7 20 11 ONO 1023,8 60 0 0,0
15.09.2019 05:00:00 17,7 9,3 15,1 10 6 13 7 ONO 1024,1 60 0 0,0
15.09.2019 04:00:00 18,1 9,7 16,5 11 6 16 9 ONO 1024,5 60 0 0,0
15.09.2019 03:00:00 18,0 10,6 15,5 4 2 11 6 O 1024,9 60 0 0,0
15.09.2019 02:00:00 19,2 10,5 14,5 7 4 11 6 O 1025,2 60 0 0,0
15.09.2019 01:00:00 18,8 10,9 14,3 8 4 10 5 OZO 1025,2 60 0 0,0
15.09.2019 00:00:00 19,0 10,8 15,9 8 5 17 9 ZO 1025,0 60 0 0,0
14.09.2019 23:00:00 20,4 11,3 14,7 12 7 18 10 ZO 1024,9 60 0 0,0
14.09.2019 22:00:00 21,3 11,3 17,4 8 5 20 11 ZO 1024,7 60 0 0,0
14.09.2019 21:00:00 21,4 11,1 17,8 12 6 21 12 ZO 1024,7 60 0 0,0
14.09.2019 20:00:00 24,9 11,1 21,8 6 4 12 6 OZO 1023,4 60 40 0,0
14.09.2019 19:00:00 27,1 11,2 30,1 6 3 14 8 NNO 1022,6 60 60 0,0
14.09.2019 18:00:00 27,7 10,4 32,4 6 3 16 9 N 1022,4 58 60 0,0
14.09.2019 17:00:00 28,3 10,9 34,3 10 5 22 12 N 1022,6 60 60 0,0
14.09.2019 16:00:00 27,4 11,0 34,3 8 4 22 12 WNW 1023,5 55 60 0,0
14.09.2019 15:00:00 26,9 9,7 34,3 8 4 19 10 NNO 1024,2 17 60 0,0
14.09.2019 14:00:00 25,2 11,0 23,6 6 4 12 7 NO 1025,1 59 10 0,0
14.09.2019 13:00:00 21,5 13,7 22,2 5 3 21 11 OZO 1026,3 60 0 0,0
14.09.2019 12:00:00 20,9 14,8 17,4 6 3 14 7 OZO 1026,5 59 0 0,2
14.09.2019 11:00:00 20,0 13,0 20,3 4 2 10 5 O 1026,9 60 0 0,0
14.09.2019 10:00:00 19,8 11,6 17,5 4 2 7 4 ONO 1027,0 60 9 0,0
14.09.2019 09:00:00 16,0 10,5 16,0 5 3 10 5 ZO 1027,8 60 3 0,0
14.09.2019 08:00:00 16,5 9,9 11,9 8 4 12 7 O 1027,1 60 12 0,0
14.09.2019 07:00:00 14,3 9,7 11,7 6 3 17 9 O 1027,5 60 0 0,0
14.09.2019 06:00:00 14,2 10,0 10,3 6 4 9 5 O 1027,6 60 0 0,0
14.09.2019 05:00:00 13,1 9,7 10,7 4 2 12 6 ZZO 1028,1 60 0 0,0
14.09.2019 04:00:00 16,5 9,9 11,5 10 5 13 7 ONO 1027,7 60 0 0,0
14.09.2019 03:00:00 15,4 9,7 11,8 4 2 8 5 OZO 1028,1 60 0 0,0
14.09.2019 02:00:00 17,8 9,7 14,5 8 5 10 6 OZO 1027,6 60 0 0,0
14.09.2019 01:00:00 17,7 9,8 13,9 8 5 11 6 ZZO 1027,7 60 0 0,0
14.09.2019 00:00:00 17,3 9,7 14,2 7 4 14 8 ZO 1027,9 60 0 0,0
13.09.2019 23:00:00 21,1 10,0 14,5 10 6 13 7 OZO 1026,9 60 0 0,0
13.09.2019 22:00:00 20,6 9,8 15,6 5 3 10 6 ZZO 1027,0 60 0 0,0
13.09.2019 21:00:00 22,7 9,8 18,4 5 3 11 6 ZZO 1026,1 60 0 0,0
13.09.2019 20:00:00 24,3 9,5 20,7 7 4 14 8 Z 1025,8 60 15 0,0
13.09.2019 19:00:00 27,4 8,8 27,4 10 5 22 12 ZZO 1025,1 60 48 0,0
13.09.2019 18:00:00 28,3 8,0 30,3 14 8 31 17 Z 1024,8 18 46 0,0
13.09.2019 17:00:00 29,7 10,3 32,7 21 11 40 22 ZZW 1024,5 60 47 0,0
13.09.2019 16:00:00 30,9 9,2 35,9 10 5 25 13 ZZW 1024,5 59 60 0,0
13.09.2019 15:00:00 30,3 8,1 36,0 6 3 27 14 ONO 1024,9 60 60 0,0
13.09.2019 14:00:00 29,5 9,6 35,3 6 3 19 10 ZO 1025,8 56 60 0,0
13.09.2019 13:00:00 28,3 8,6 34,3 5 3 15 8 NNO 1026,7 53 60 0,0
13.09.2019 12:00:00 26,2 9,1 29,1 4 2 13 7 O 1027,6 51 60 0,0
13.09.2019 11:00:00 22,8 11,2 24,5 6 3 12 7 ONO 1028,4 54 60 0,0
13.09.2019 10:00:00 18,9 10,5 19,9 5 3 10 5 ONO 1029,3 58 60 0,0
13.09.2019 09:00:00 16,4 9,6 12,0 7 4 10 6 NO 1029,7 53 36 0,0
13.09.2019 08:00:00 11,5 8,2 8,4 4 2 9 5 O 1031,2 60 0 0,0
13.09.2019 07:00:00 11,5 8,5 7,9 3 1 12 6 ZZW 1031,0 60 0 0,0

tt = temperatuur
td = dauwpunt
tt 5cm = temperatuur 5cm
ff = windsnelheid
fx = windstoten
dd = windrichting
ppp = luchtdruk
vv = zicht
sd = Zonneschijnduur
rr = neerslag

Weerstations in de omgeving